Showing default

FLOCK 4G 16, 62638

Orbit data source: Space-Track

FLOCK 4G 16, 62638 is a payload satellite owned by Planet (US) in SSO that was launched on Tue, 14 Jan 2025 UTC via an FALCON 9 launch vehicle from the Air Force Western Test Range (AFWTR). Payload-class satellites include a variety of spacecraft equipped with specific instruments for various scientific and technological missions. These include communications satellites like Starlink; space stations such as the ISS; scientific satellites like the Hubble; Earth observation satellites from companies like Planet Labs, Umbra, and HawkEye 360; GPS; miniature CubeSats for education and research; and military/defense satellites.

Loading next visibility...
Identifier
62638, 2025-009AF
Orbit
SSO
Country
Flag of USUS
Related business
Manufacturer
Planet
Mission
Non-operational Commercial Imaging
Bus & Motor
CUBESAT 3U, Unknown motor
Mass
5.7 kg wet, 5.7 kg dry
Launch date (UTC)
2025-01-14 (1 year ago)
Launch vehicle
FALCON 9
Launch site
Air Force Western Test Range (AFWTR)
Object type
Payload
Rocket body
Debris
Shape & HBR
Box + 2 Pan, 1.0 m
Radar Cross Section
0.072 m², Medium (>0.1 m² and < 1m²)

Expand to show TLE details & history
Last TLE update: 5 days ago

TLE from 5 days ago
0 FLOCK 4G 16
1 62638U 25009AF  26154.23497242  .00117862  00000-0  13623-2 0  9994
2 62638  97.3855 243.7903 0001696 239.2721 120.8370 15.61488958 77325
Epoch: 2026-06-03T05:38Z
TLE epoch observation values (Epoch: 2026-06-03T05:38:21.617Z)
Latitude
0.00003°
Longitude
-92.49628°
Altitude
387.09 km
Speed
7.677 km/s
True Right ascension
16h 15m 09s
True Declination
0° 00' 00"
Sunlit
Object was in full shadow at epoch
Visualization orbit readout
Latitude
Unknown
Longitude
Unknown
Altitude
Unknown
Speed
Unknown
Apparent Right ascension
Unknown
Apparent Declination
Unknown
Sunlit
N/A
Visualization observer readout
Local Sidereal Time
03:25:13
Azimuth
Unknown
Elevation
Unknown
Doppler factor
Unknown
Orbital elements
Apogee altitude
381.411 km
Perigee altitude
379.119 km
Semi-major axis
6,758.402 km
Eccentricity
0.00017
Inclination
97.3855°
RAAN
243.7903°
Arg. of periapsis
239.2721°
True anomaly
120.85369°
Mean anomaly
120.837°
Eccentric anomaly
120.84534°
Mean motion
3.9064 °/min
Orbital period
92.16 mins
BSTAR
0.0013623
Loading maneuver chart data...
Computing Atmospheric mass density...
Loading historical data...
Loading historical data...
Loading historical data...
Loading historical data...
Loading historical data...
Loading historical data...
Loading historical data...

Documentation

Showing up to 5 results
|